Regional Weather Roundup
Issued by NWS

Home | Current Version | Previous Version | Graphics & Text | Print | Product List | Glossary On
Versions: 1 2 3 4 5 6 7 8 9 10 11 12 13 14 15 16 17 18 19 20 21 22 23 24 25 26 27 28 29 30 31 32 33 34 35 36 37 38 39 40 41 42 43 44 45 46 47 48 49 50
000
ASUS43 KLOT 120608
RWRIL

ILLINOIS REGIONAL WEATHER ROUNDUP
NATIONAL WEATHER SERVICE CHICAGO/ROMEOVILLE IL
1200 AM CST FRI FEB 12 2016

NOTE: "FAIR" INDICATES FEW OR NO CLOUDS BELOW 12,000 FEET WITH NO
SIGNIFICANT WEATHER AND/OR OBSTRUCTIONS TO VISIBILITY.

* THESE STATIONS ARE NOT UNDER NWS QUALITY CONTROL. THEY ALSO MAY NOT
  REPORT WEATHER SUCH AS PRECIPITATION OR FOG.

ILZ001-002-007-009-015-016-024-120700-
NORTHWEST ILLINOIS

CITY           SKY/WX    TMP DP  RH WIND       PRES   REMARKS
MOLINE         CLOUDY    22  12  65 SW3       30.25F
6HR MIN TEMP:  21; 6HR MAX TEMP:  22;

STERLING*      CLOUDY    18   7  62 CALM      30.22F
SAVANNA*       MOCLDY    17  13  84 CALM      30.25F
$$

ILZ003-004-008-010-011-017-018-120700-
NORTH CENTRAL ILLINOIS

CITY           SKY/WX    TMP DP  RH WIND       PRES   REMARKS
ROCKFORD       CLOUDY    19   7  59 SW3       30.25F
6HR MIN TEMP:  15; 6HR MAX TEMP:  19;

FREEPORT*      CLOUDY    16   7  68 CALM      30.24F
ROCHELLE*      CLOUDY    17  12  80 SW5       30.24F WCI  10
DE KALB*       CLOUDY    19   8  61 W6        30.22F WCI  11
$$

ILZ005-006-012>014-019>023-120700-
NORTHEAST ILLINOIS

CITY           SKY/WX    TMP DP  RH WIND       PRES   REMARKS
CHICAGO-OHARE  CLOUDY    18   7  62 W6        30.24F WCI  10
6HR MIN TEMP:  15; 6HR MAX TEMP:  18;

CHICAGO-MIDWAY CLOUDY    19   5  54 SW5       30.25F WCI  12
6HR MIN TEMP:  18; 6HR MAX TEMP:  21;

AURORA         CLOUDY    19   9  65 SW5       30.24F WCI  12
6HR MIN TEMP:  18; 6HR MAX TEMP:  20;

LANSING*       CLOUDY    16  10  77 S3        30.26F
JOLIET*        CLOUDY    22   9  57 CALM      30.26F
WAUKEGAN       CLOUDY    17   6  62 VRB3      30.21F
6HR MIN TEMP:   9; 6HR MAX TEMP:  17;

DUPAGE AIRPORT CLOUDY    17   8  67 SW6       30.23F WCI   9
6HR MIN TEMP:  11; 6HR MAX TEMP:  17;

KANKAKEE*      MOCLDY    18  13  80 SW5       30.27F WCI  11
WHEELING       CLOUDY    19   5  54 W6        30.25F WCI  11
6HR MIN TEMP:  17; 6HR MAX TEMP:  19;

MORRIS*        CLOUDY    19  11  69 CALM      30.24F
ROMEOVILLE*    CLOUDY    19   8  64 SW5       30.25F WCI  12
NORTHERLY ISL    N/A     21   6  52 W6          N/A  WCI  14
$$

LMZ740>746-120700-
SOUTHERN LAKE MICHIGAN

STATION/POSITION SKY/WX   TEMP    WIND        PRES    VSBY  WAVE
                          AIR SEA DIR/SP/G                  HT/PER
                          (F)     (DEG/KT/KT) (MB)    (MI)  (FT/S)
HARRISON CRIB              22     250/ 11/ 13   N/A
BURNHAM HARBOR             20     210/  2/  7   N/A
CALUMET HARBOR             19     230/  4/  6 1024.0F
BURNS HARBOR               17     190/  6/  8 1025.1F
MICHIGAN CITY              17     180/  8/  9   N/A
$$

ILZ025>027-034>036-040-047-049-050-058-095>099-120700-
WEST-CENTRAL ILLINOIS

CITY           SKY/WX    TMP DP  RH WIND       PRES   REMARKS
QUINCY         CLOUDY    20  16  84 CALM      30.25R
GALESBURG*     FLURRIES  22  15  75 CALM      30.24F
MACOMB*        CLOUDY    23  18  80 SW3       30.28S
JACKSONVILLE*  FLURRIES  26  18  74 CALM      30.25F
PITTSFIELD*    CLOUDY    23  17  79 N3        30.26S
$$

ILZ028>032-037-038-041>044-048-051>054-059>061-120700-
CENTRAL ILLINOIS

CITY           SKY/WX    TMP DP  RH WIND       PRES   REMARKS
PONTIAC        MOCLDY    21  17  83 CALM      30.26F
BLOOMINGTON    CLOUDY    21  13  71 S7        30.25F WCI  12
DECATUR        CLOUDY    23  11  60 S3        30.25F
PEORIA         MOCLDY    23  10  57 SW6       30.26F WCI  16
6HR MIN TEMP:  22; 6HR MAX TEMP:  24;

LACON*         CLOUDY    22  10  61 CALM      30.25F
LINCOLN*       MOCLDY    25  15  65 CALM      30.26F
SPRINGFIELD    CLOUDY    26  14  60 S6        30.25F WCI  19
6HR MIN TEMP:  26; 6HR MAX TEMP:  26;

TAYLORVILLE    CLOUDY    25  14  63 CALM      30.25F
$$

ILZ033-039-045-046-055>057-062-063-120700-
EAST-CENTRAL ILLINOIS

CITY           SKY/WX    TMP DP  RH WIND       PRES   REMARKS
CHAMPAIGN      CLOUDY    21  12  68 S5        30.25F WCI  15
RANTOUL*       MOCLDY    23  11  59 CALM      30.25F
MATTOON        CLOUDY    21  10  62 CALM      30.25F
PARIS*         CLOUDY    21  15  75 CALM      30.27F
$$

ILZ079-100>102-120700-
SOUTHWEST ILLINOIS

CITY           SKY/WX    TMP DP  RH WIND       PRES   REMARKS
ALTON          CLOUDY    26  17  70 E3        30.26F
BELLEVILLE     MOCLDY    27  16  63 E2        30.24F
CAHOKIA*       CLOUDY    28  13  53 E3        30.25F
SPARTA*        CLOUDY    27  18  69 CALM      30.26S
$$

ILZ064>066-069>071-074>076-080>082-084>086-088>090-092>094-120700-
SOUTH-CENTRAL ILLINOIS

CITY           SKY/WX    TMP DP  RH WIND       PRES   REMARKS
CARBONDALE     CLOUDY    29  14  53 N5        30.26R WCI  24
6HR MIN TEMP:  28; 6HR MAX TEMP:  30;

CAIRO*         CLOUDY    31  22  69 CALM      30.23R
EFFINGHAM*     CLOUDY    25  15  65 CALM      30.29R
MARION         CLOUDY    30  18  59 N6        30.25R WCI  24
MT. VERNON     CLOUDY    27  12  54 NE3       30.26F
CENTRALIA*     CLOUDY    27  18  67 NE5       30.25F WCI  22
SALEM*         CLOUDY    27  15  59 CALM      30.26S
METROPOLIS*    CLOUDY    31  20  65 E5        30.23F WCI  26
$$

ILZ067-068-072-073-078-083-087-091-120700-
SOUTHEAST ILLINOIS

CITY           SKY/WX    TMP DP  RH WIND       PRES   REMARKS
LAWRENCEVILLE  CLOUDY    25  11  55 E6        30.27F WCI  18
FLORA*         CLOUDY    27  14  57 NE3       30.27S
FAIRFIELD*     CLOUDY    27  16  64 NE5       30.26R WCI  22
HARRISBURG*    CLOUDY    29  19  66 CALM      30.27R
ROBINSON*      MOCLDY    23  14  66 CALM      30.29F
CARMI*         CLOUDY    28  19  67 NE5       30.26R WCI  23
$$

ABBREVIATIONS USED IN REMARKS
   TC - TEMPERATURE IN CELSIUS
  WCI - WIND CHILL INDEX
   HX - HEAT INDEX
  VSB - VISIBILITY
$$




USA.gov is the U.S. government's official web portal to all federal, state and local government web resources and services.